Location: *
(34.0486°S, 61.7880°E)
Time: 18:28:49
(UTC+00:00)

Cosmos 2098 Rocket - Pass Details

Date: 01 April 2020
Orbit: 368 x 1187 km, 82.9° (Epoch: 27 May)

Event Time Altitude Azimuth Distance (km) Brightness Sun altitude
Rises 14:35:48 0° 359° (N) 3,530 6.9 -10.9°
Reaches altitude 10° 14:38:05 10° 360° (N) 2,698 6.3 -11.3°
Maximum altitude 14:44:29 82° 86° (E) 1,110 4.2 -12.6°
Drops below altitude 10° 14:51:55 10° 172° (S) 3,117 6.6 -14.2°
Sets 14:54:43 0° 172° (S) 4,108 7.2 -14.8°
